Location: Colonia Mina de C?rbuni
(46.1667°N, 22.7167°E)
Time: 18:07:14
(UTC+00:00)

Okean O Rocket - Pass Details

Date: 04 February 2023
Orbit: 620 x 643 km, 98.1° (Epoch: 30 March)

Event Time Altitude Azimuth Distance (km) Brightness Sun altitude
Rises 17:57:46 0° 177° (S) 2,907 5.0 -24.4°
Reaches altitude 10° 17:59:59 10° 182° (S) 2,008 4.2 -24.8°
Maximum altitude 18:04:15 53° 259° (W) 782 2.3 -25.6°
Drops below altitude 10° 18:08:36 10° 337° (NNW) 2,038 4.5 -26.3°
Sets 18:10:53 0° 343° (NNW) 2,956 5.3 -26.7°
